Weather reports worldwide

Advertisment
Messina, Italy (16420): temperature & dewpoint: 11.07.2019 07:00:00 - 17.07.2019 07:00:00 (CEST)Messina, Italy (16420): wind speed: 11.07.2019 07:00:00 - 17.07.2019 07:00:00 (CEST)Messina, Italy (16420): wind direction: 11.07.2019 07:00:00 - 17.07.2019 07:00:00 (CEST)Messina, Italy (16420): reduced air pressure: 11.07.2019 07:00:00 - 17.07.2019 07:00:00 (CEST)Messina, Italy (16420): visibility: 11.07.2019 07:00:00 - 17.07.2019 07:00:00 (CEST)Messina, Italy (16420): sunshine duration: 11.07.2019 07:00:00 - 17.07.2019 07:00:00 (CEST)
Date & Time tt [°C] td [°C] ff [km/h] ff [kn] dd ppp [hPa] vv [km] sd [min]
17.07.2019 07:00:00 24,0 17,0 11 6 NNW 1010,1 20 18
17.07.2019 06:00:00 23,8 17,8 11 6 NNW 1009,9 10 -
17.07.2019 05:00:00 23,8 17,1 13 7 NW 1009,9 10 -
17.07.2019 04:00:00 24,2 16,0 11 6 N 1009,9 10 -
17.07.2019 03:00:00 24,4 17,4 11 6 N 1009,9 10 -
17.07.2019 02:00:00 24,4 18,1 9 5 N 1009,8 10 -
17.07.2019 01:00:00 24,4 17,4 9 5 N 1009,7 10 -
17.07.2019 00:00:00 24,4 17,2 9 5 N 1009,5 10 -
16.07.2019 23:00:00 24,6 18,1 11 6 N 1009,1 10 -
16.07.2019 22:00:00 24,8 19,2 13 7 N 1008,3 10 -
16.07.2019 21:00:00 25,0 19,2 11 6 N 1007,5 10 -
16.07.2019 20:00:00 24,8 19,4 13 7 NNW 1007,2 10 0
16.07.2019 19:00:00 25,0 17,5 15 8 NNW 1006,5 10 0
16.07.2019 18:00:00 27,0 16,0 11 6 NNW 1005,6 10 60
16.07.2019 17:00:00 26,8 17,9 9 5 N 1005,3 10 48
16.07.2019 16:00:00 26,4 18,5 15 8 N 1005,2 10 48
16.07.2019 15:00:00 26,4 18,8 22 12 NW 1004,5 10 18
16.07.2019 14:00:00 25,8 18,5 22 12 NW 1004,4 10 0
16.07.2019 13:00:00 26,4 18,8 29 16 WNW 1004,2 10 42
16.07.2019 12:00:00 26,2 19,1 24 13 NW 1004,0 10 60
16.07.2019 11:00:00 27,6 14,3 13 7 NW 1003,7 10 60
16.07.2019 10:00:00 26,6 16,8 11 6 NW 1004,2 10 60
16.07.2019 09:00:00 26,4 16,6 11 6 NW 1004,4 10 60
16.07.2019 08:00:00 24,6 22,3 4 2 ESE 1004,3 10 48
16.07.2019 07:00:00 23,8 22,1 9 5 WSW 1004,4 10 0
16.07.2019 06:00:00 23,6 20,9 9 5 WSW 1005,0 10 -
16.07.2019 05:00:00 23,8 21,1 5 3 SW 1005,0 10 -
16.07.2019 04:00:00 23,6 21,5 4 2 WSW 1005,1 10 -
16.07.2019 03:00:00 24,6 21,3 5 3 SSW 1005,6 10 -
16.07.2019 02:00:00 24,2 20,9 4 2 S 1005,6 10 -
16.07.2019 01:00:00 23,8 21,5 5 3 WSW 1006,4 10 -
16.07.2019 00:00:00 23,8 21,7 4 2 WSW 1006,5 10 -
15.07.2019 23:00:00 24,0 23,2 2 1 NNW 1006,5 12 -
15.07.2019 22:00:00 23,8 22,4 11 6 WSW 1006,5 10 -
15.07.2019 21:00:00 24,8 21,5 13 7 SW 1006,1 10 -
15.07.2019 20:00:00 25,8 21,3 16 9 SW 1005,8 10 0
15.07.2019 19:00:00 26,0 21,0 15 8 SW 1005,7 10 0
15.07.2019 18:00:00 26,2 21,0 22 12 WSW 1005,7 20 0
15.07.2019 17:00:00 26,8 20,6 22 12 WSW 1005,7 20 0
15.07.2019 16:00:00 28,2 20,2 21 11 SW 1005,8 20 60
15.07.2019 15:00:00 27,2 20,0 16 9 SW 1006,2 20 54
15.07.2019 14:00:00 26,8 20,2 18 10 SW 1006,4 20 12
15.07.2019 13:00:00 26,4 19,8 26 14 SW 1006,6 20 30
15.07.2019 12:00:00 26,8 19,7 21 11 SW 1006,6 20 54
15.07.2019 11:00:00 24,4 19,5 22 12 SW 1007,0 20 6
15.07.2019 10:00:00 23,4 19,4 16 9 SW 1007,0 10 0
15.07.2019 09:00:00 23,0 20,9 13 7 SW 1007,2 10 0
15.07.2019 08:00:00 23,0 20,9 37 20 SW 1007,0 4,0 6
15.07.2019 07:00:00 22,4 21,2 24 13 SW 1006,3 4,0 0
15.07.2019 06:00:00 22,4 21,6 24 13 SW 1006,7 4,0 -
15.07.2019 05:00:00 23,0 22,7 26 14 SW 1005,9 4,0 -
15.07.2019 04:00:00 23,8 22,1 24 13 SW 1007,3 4,0 -
15.07.2019 03:00:00 25,0 20,7 21 11 SW 1006,2 10 -
15.07.2019 02:00:00 25,2 21,3 16 9 SW 1007,4 10 -
15.07.2019 01:00:00 25,2 19,4 18 10 SW 1008,3 10 -
15.07.2019 00:00:00 25,4 20,9 21 11 SW 1009,2 10 -
14.07.2019 23:00:00 25,4 20,9 21 11 SSW 1009,3 10 -
14.07.2019 22:00:00 25,4 21,7 15 8 SSW 1008,8 10 -
14.07.2019 21:00:00 25,4 21,7 21 11 SSW 1008,2 10 -
14.07.2019 20:00:00 26,0 22,3 18 10 SSW 1008,2 10 0
14.07.2019 19:00:00 26,2 22,7 15 8 SSW 1008,3 10 0
14.07.2019 18:00:00 26,4 22,5 18 10 SSW 1008,6 20 30
14.07.2019 17:00:00 27,4 22,6 13 7 SSW 1008,8 20 36
14.07.2019 16:00:00 27,4 22,4 16 9 SSW 1009,2 20 54
14.07.2019 15:00:00 27,8 22,3 16 9 W 1009,1 20 60
14.07.2019 14:00:00 27,8 23,0 16 9 SSW 1009,1 10 54
14.07.2019 13:00:00 27,4 22,8 15 8 SSW 1009,2 10 60
14.07.2019 12:00:00 27,8 23,2 15 8 SSW 1008,8 10 48
14.07.2019 11:00:00 29,6 20,7 11 6 NW 1008,1 10 60
14.07.2019 10:00:00 29,0 22,3 8 4 N 1007,9 10 60
14.07.2019 09:00:00 28,0 22,5 9 5 W 1007,8 10 60
14.07.2019 08:00:00 26,8 20,6 5 3 E 1007,2 10 60
14.07.2019 07:00:00 25,6 18,5 2 1 NE 1007,2 20 42
14.07.2019 06:00:00 24,6 18,1 4 2 W 1007,2 20 -
14.07.2019 05:00:00 25,0 17,0 2 1 NW 1007,5 20 -
14.07.2019 04:00:00 25,0 18,4 5 3 NNW 1008,1 20 -
14.07.2019 03:00:00 25,0 17,0 2 1 N 1008,2 20 -
14.07.2019 02:00:00 25,4 18,8 4 2 NNW 1008,6 20 -
14.07.2019 01:00:00 26,0 22,5 0 0 N 1008,8 20 -
14.07.2019 00:00:00 26,0 21,9 4 2 NE 1008,7 20 -
13.07.2019 23:00:00 26,6 23,3 4 2 N 1008,8 20 -
13.07.2019 22:00:00 27,0 22,8 9 5 NE 1008,7 20 -
13.07.2019 21:00:00 27,0 22,8 9 5 NNE 1008,5 20 -
13.07.2019 20:00:00 27,6 20,9 5 3 N 1008,7 20 30
13.07.2019 19:00:00 28,8 18,6 9 5 W 1008,3 20 60
13.07.2019 18:00:00 29,4 17,9 8 4 E 1008,5 20 60
13.07.2019 17:00:00 30,4 17,1 15 8 NE 1009,0 20 60
13.07.2019 16:00:00 30,0 14,5 15 8 NE 1009,7 20 60
13.07.2019 15:00:00 29,8 17,0 15 8 NE 1009,9 20 60
13.07.2019 14:00:00 30,0 20,6 26 14 ENE 1010,1 20 60
13.07.2019 13:00:00 28,8 22,8 26 14 ENE 1010,5 20 60
13.07.2019 12:00:00 29,0 21,8 22 12 ENE 1010,9 20 60
13.07.2019 11:00:00 28,6 20,9 15 8 ENE 1011,0 20 60
13.07.2019 10:00:00 29,0 20,2 9 5 E 1011,0 20 60
13.07.2019 09:00:00 27,6 20,9 15 8 NW 1011,1 20 60
13.07.2019 08:00:00 26,4 22,0 11 6 ENE 1011,2 20 60
13.07.2019 07:00:00 25,4 22,5 8 4 ENE 1011,2 20 0
13.07.2019 06:00:00 25,0 22,1 4 2 NNE 1011,2 20 -
13.07.2019 05:00:00 25,0 22,1 4 2 NE 1011,4 20 -
13.07.2019 04:00:00 24,8 20,7 5 3 NE 1012,1 20 -
13.07.2019 03:00:00 24,8 21,9 2 1 N 1011,7 20 -
13.07.2019 02:00:00 24,8 21,9 5 3 NNW 1012,5 20 -
13.07.2019 01:00:00 25,4 22,5 5 3 N 1012,5 20 -
13.07.2019 00:00:00 25,6 22,3 5 3 NNE 1012,4 20 -
12.07.2019 23:00:00 25,8 21,7 4 2 NE 1012,4 20 -
12.07.2019 22:00:00 26,0 21,9 9 5 NE 1012,2 20 -
12.07.2019 21:00:00 26,0 22,1 8 4 NE 1011,8 20 -
12.07.2019 20:00:00 26,6 22,0 13 7 NNE 1011,7 20 18
12.07.2019 19:00:00 28,0 20,8 13 7 NE 1011,5 20 60
12.07.2019 18:00:00 29,0 20,7 18 10 NE 1011,6 20 60
12.07.2019 17:00:00 29,0 19,9 21 11 NE 1011,6 20 60
12.07.2019 16:00:00 29,0 19,4 22 12 NE 1012,1 20 60
12.07.2019 15:00:00 - - - - - - - -
12.07.2019 14:00:00 29,0 22,0 18 10 SE 1012,4 20 60
12.07.2019 13:00:00 29,0 20,7 22 12 ENE 1012,5 20 60
12.07.2019 12:00:00 28,4 19,4 18 10 ENE 1012,9 20 60
12.07.2019 11:00:00 27,2 20,0 16 9 ENE 1013,1 20 60
12.07.2019 10:00:00 27,2 19,0 11 6 NNE 1012,9 20 60
12.07.2019 09:00:00 26,6 20,0 8 4 NW 1012,8 20 60
12.07.2019 08:00:00 25,0 20,5 8 4 NE 1012,7 20 60
12.07.2019 07:00:00 24,0 20,7 5 3 NNW 1012,5 20 18
12.07.2019 06:00:00 23,6 20,7 8 4 NW 1012,4 10 -
12.07.2019 05:00:00 23,8 20,5 5 3 NW 1012,4 10 -
12.07.2019 04:00:00 24,0 19,9 5 3 NW 1012,5 10 -
12.07.2019 03:00:00 23,8 19,1 8 4 NW 1012,5 10 -
12.07.2019 02:00:00 24,2 18,6 8 4 NW 1012,5 10 -
12.07.2019 01:00:00 24,8 18,3 8 4 NW 1012,4 10 -
12.07.2019 00:00:00 25,0 18,5 4 2 NW 1012,4 10 -
11.07.2019 23:00:00 25,4 18,1 4 2 NW 1012,4 10 -
11.07.2019 22:00:00 26,0 18,7 4 2 NNE 1012,2 10 -
11.07.2019 21:00:00 26,4 18,0 8 4 NNE 1012,1 10 -
11.07.2019 20:00:00 26,8 17,6 8 4 N 1011,6 20 36
11.07.2019 19:00:00 27,4 17,0 5 3 NNE 1011,4 20 60
11.07.2019 18:00:00 28,8 17,4 8 4 N 1011,2 20 60
11.07.2019 17:00:00 29,4 18,5 8 4 N 1011,1 20 60
11.07.2019 16:00:00 29,4 18,8 11 6 NW 1011,1 10 60
11.07.2019 15:00:00 29,2 18,3 9 5 NNW 1011,1 10 60
11.07.2019 14:00:00 28,4 20,9 8 4 SSE 1011,2 10 60
11.07.2019 13:00:00 28,0 20,8 9 5 SSW 1010,8 10 60
11.07.2019 12:00:00 29,0 19,0 15 8 NW 1010,7 10 60
11.07.2019 11:00:00 28,4 19,1 15 8 WNW 1010,6 10 60
11.07.2019 10:00:00 28,2 20,5 11 6 NW 1010,4 10 60
11.07.2019 09:00:00 27,8 21,6 8 4 NW 1010,2 10 60
11.07.2019 08:00:00 26,8 22,7 8 4 NW 1009,2 10 60
11.07.2019 07:00:00 26,2 22,5 11 6 NNW 1008,8 10 12

tt = temperature
td = dewpoint
ff = wind speed
dd = wind direction
ppp = reduced air pressure
vv = visibility
sd = sunshine duration

Next stations